EW1867 Weather Reports


Display with metric or nautical units.
time (UTC)temp
F
wind
direction
speed
MPH
gust
MPH
rain 1hr
in
rain 24hr
in
rain mn
in
humidity
%
barometer
mb
20260906220825 85 135 2.0 7.0 0.00 0.00 0.00 29 1012.0
20260906215925 85 214 2.0 6.0 0.00 0.00 0.00 31 1012.1
20260906215025 84 152 2.0 6.0 0.00 0.00 0.00 32 1012.1
20260906214125 85 199 3.0 6.0 0.00 0.00 0.00 32 1012.2
20260906212325 84 126 2.0 8.0 0.00 0.00 0.00 33 1012.3
20260906210524 84 122 2.0 5.0 0.00 0.00 0.00 34 1012.3
20260906204725 84 198 2.0 4.0 0.00 0.00 0.00 37 1012.5
20260906203825 83 214 2.0 8.0 0.00 0.00 0.00 36 1012.5
20260906202024 82 156 2.0 7.0 0.00 0.00 0.00 36 1012.6
20260906201125 82 163 2.0 7.0 0.00 0.00 0.00 39 1012.5
20260906200225 82 219 2.0 7.0 0.00 0.00 0.00 37 1012.7
20260906195325 82 195 2.0 7.0 0.00 0.00 0.00 36 1012.8
20260906193525 80 141 2.0 4.0 0.00 0.00 0.00 42 1013.0
20260906190825 79 192 2.0 6.0 0.00 0.00 0.00 47 1013.2
20260906185925 78 218 2.0 5.0 0.00 0.00 0.00 47 1013.2
20260906185025 77 127 2.0 4.0 0.00 0.00 0.00 51 1013.3
20260906184125 76 102 2.0 6.0 0.00 0.00 0.00 54 1013.3
20260906183225 75 104 2.0 5.0 0.00 0.00 0.00 54 1013.3
20260906182325 75 116 2.0 6.0 0.00 0.00 0.00 55 1013.4
20260906175625 75 212 1.0 4.0 0.00 0.00 0.00 55 1013.4
20260906174725 74 188 1.0 5.0 0.00 0.00 0.00 57 1013.5
20260906172925 73 187 1.0 3.0 0.00 0.00 0.00 59 1013.5
20260906172025 72 179 2.0 3.0 0.00 0.00 0.00 59 1013.6
20260906171125 71 191 1.0 4.0 0.00 0.00 0.00 59 1013.7
20260906170225 71 142 2.0 5.0 0.00 0.00 0.00 60 1013.7
20260906165325 70 107 2.0 5.0 0.00 0.00 0.00 61 1013.7
20260906162625 69 114 1.0 3.0 0.00 0.00 0.00 63 1013.7
20260906161725 69 130 1.0 3.0 0.00 0.00 0.00 64 1013.7
20260906160825 67 110 1.0 7.0 0.00 0.00 0.00 67 1013.7
20260906155025 66 111 1.0 5.0 0.00 0.00 0.00 71 1013.9
20260906154125 65 109 1.0 4.0 0.00 0.00 0.00 73 1013.9
20260906153226 65 129 2.0 5.0 0.00 0.00 0.00 75 1013.8
20260906152325 63 120 2.0 4.0 0.00 0.00 0.00 77 1013.8
20260906145625 60 109 2.0 5.0 0.00 0.00 0.00 80 1013.7
20260906144725 60 95 2.0 5.0 0.00 0.00 0.00 79 1013.7
20260906143825 59 104 2.0 5.0 0.00 0.00 0.00 80 1013.6
20260906142925 59 103 1.0 4.0 0.00 0.00 0.00 79 1013.5
20260906142025 59 98 0.0 3.0 0.00 0.00 0.00 79 1013.5
20260906141125 58 0 0.0 2.0 0.00 0.00 0.00 80 1013.3
20260906140225 58 0 0.0 1.0 0.00 0.00 0.00 81 1013.3
20260906135325 58 112 0.0 1.0 0.00 0.00 0.00 81 1013.2
20260906134425 58 107 1.0 2.0 0.00 0.00 0.00 80 1013.0
20260906133525 58 102 0.0 3.0 0.00 0.00 0.00 80 1012.9
20260906132625 58 102 1.0 2.0 0.00 0.00 0.00 80 1013.0
20260906130825 58 103 1.0 4.0 0.00 0.00 0.00 78 1012.9
20260906125925 58 105 1.0 4.0 0.00 0.00 0.00 78 1012.8
20260906125025 58 98 1.0 3.0 0.00 0.00 0.00 78 1012.7
20260906124125 59 103 1.0 2.0 0.00 0.00 0.00 77 1012.7
20260906123225 59 107 1.0 3.0 0.00 0.00 0.00 77 1012.5
20260906122325 59 103 1.0 5.0 0.00 0.00 0.00 76 1012.6
20260906121426 59 104 1.0 3.0 0.00 0.00 0.00 76 1012.6
20260906120525 59 0 0.0 2.0 0.00 0.00 0.00 76 1012.6
20260906115625 59 0 0.0 1.0 0.00 0.00 0.00 76 1012.7
20260906114725 59 0 0.0 2.0 0.00 0.00 0.00 75 1012.7
20260906113825 60 0 0.0 2.0 0.00 0.00 0.00 75 1012.6
20260906112925 60 0 0.0 2.0 0.00 0.00 0.00 75 1012.5
20260906112025 60 0 0.0 2.0 0.00 0.00 0.00 75 1012.6
20260906105325 60 0 0.0 3.0 0.00 0.00 0.00 74 1012.4
20260906104425 60 0 0.0 2.0 0.00 0.00 0.00 74 1012.5
20260906103525 60 0 0.0 2.0 0.00 0.00 0.00 73 1012.5
20260906102625 60 0 0.0 1.0 0.00 0.00 0.00 73 1012.4
20260906095925 61 0 0.0 2.0 0.00 0.00 0.00 69 1012.3
20260906095025 61 117 1.0 2.0 0.00 0.00 0.00 68 1012.3
20260906094125 62 114 1.0 3.0 0.00 0.00 0.00 67 1012.1
20260906093225 62 118 1.0 3.0 0.00 0.00 0.00 66 1012.2
20260906092325 62 113 1.0 3.0 0.00 0.00 0.00 65 1012.3
20260906091425 63 116 0.0 2.0 0.00 0.00 0.00 64 1012.3
20260906090525 63 0 0.0 2.0 0.00 0.00 0.00 64 1012.2
20260906085625 63 0 0.0 2.0 0.00 0.00 0.00 64 1012.3
20260906084725 63 0 0.0 2.0 0.00 0.00 0.00 64 1012.4
20260906083825 64 0 0.0 1.0 0.00 0.00 0.00 62 1012.4
20260906082925 64 0 0.0 2.0 0.00 0.00 0.00 61 1012.5
20260906082025 64 0 0.0 2.0 0.00 0.00 0.00 61 1012.4
20260906081125 64 0 0.0 2.0 0.00 0.00 0.00 61 1012.5
20260906080225 64 0 0.0 1.0 0.00 0.00 0.00 59 1012.5
20260906075325 65 0 0.0 2.0 0.00 0.00 0.00 59 1012.4
20260906074425 65 0 0.0 3.0 0.00 0.00 0.00 58 1012.4
20260906072625 65 0 0.0 1.0 0.00 0.00 0.00 58 1012.5
20260906071725 65 0 0.0 2.0 0.00 0.00 0.00 58 1012.5
20260906070825 66 0 0.0 2.0 0.00 0.00 0.00 57 1012.6
20260906064125 67 0 0.0 1.0 0.00 0.00 0.00 55 1012.5
20260906063225 67 0 0.0 1.0 0.00 0.00 0.00 53 1012.6
20260906062325 68 0 0.0 1.0 0.00 0.00 0.00 52 1012.6
20260906061425 69 0 0.0 2.0 0.00 0.00 0.00 51 1012.6
20260906060525 69 0 0.0 2.0 0.00 0.00 0.00 50 1012.7
20260906055625 69 0 0.0 2.0 0.00 0.00 0.00 49 1012.6
20260906054725 70 0 0.0 2.0 0.00 0.00 0.00 49 1012.6
20260906053825 70 177 0.0 1.0 0.00 0.00 0.00 50 1012.5
20260906052925 70 209 1.0 6.0 0.00 0.00 0.00 50 1012.6
20260906052025 71 212 2.0 4.0 0.00 0.00 0.00 50 1012.5
20260906051125 71 221 2.0 7.0 0.00 0.00 0.00 49 1012.5
20260906050225 71 222 1.0 4.0 0.00 0.00 0.00 50 1012.6
20260906044425 72 219 1.0 3.0 0.00 0.00 0.00 50 1012.4
20260906043525 72 214 0.0 3.0 0.00 0.00 0.00 50 1012.5
20260906042625 73 206 1.0 4.0 0.00 0.00 0.00 51 1012.4
20260906035925 74 214 1.0 5.0 0.00 0.00 0.00 48 1012.2
20260906035025 75 202 1.0 3.0 0.00 0.00 0.00 49 1012.1
20260906033225 76 208 1.0 4.0 0.00 0.00 0.00 48 1011.9
20260906032325 76 188 0.0 3.0 0.00 0.00 0.00 47 1011.8
20260906031425 76 0 0.0 2.0 0.00 0.00 0.00 47 1011.8
20260906030525 77 203 0.0 3.0 0.00 0.00 0.00 46 1011.5
20260906025625 77 0 0.0 4.0 0.00 0.00 0.00 44 1011.6
20260906023825 78 0 0.0 2.0 0.00 0.00 0.00 39 1011.6
20260906022925 79 113 1.0 1.0 0.00 0.00 0.00 42 1011.6
20260906015325 81 216 1.0 4.0 0.00 0.00 0.00 37 1011.6
20260906014425 82 204 1.0 3.0 0.00 0.00 0.00 37 1011.6
20260906013525 82 120 1.0 5.0 0.00 0.00 0.00 39 1011.5
20260906012625 82 149 1.0 3.0 0.00 0.00 0.00 40 1011.6
20260906011725 82 179 1.0 5.0 0.00 0.00 0.00 40 1011.6
20260906010825 83 203 1.0 4.0 0.00 0.00 0.00 40 1011.6
20260906005025 83 168 1.0 4.0 0.00 0.00 0.00 40 1011.6
20260906004125 84 162 1.0 4.0 0.00 0.00 0.00 39 1011.6
20260906003225 84 222 1.0 4.0 0.00 0.00 0.00 38 1011.7
20260906001425 85 222 2.0 7.0 0.00 0.00 0.00 37 1011.6
20260905235625 85 181 2.0 8.0 0.00 0.00 0.00 37 1011.7
20260905234725 86 168 1.0 5.0 0.00 0.00 0.00 36 1011.8
20260905233825 85 206 2.0 7.0 0.00 0.00 0.00 38 1011.9
20260905232925 85 192 1.0 7.0 0.00 0.00 0.00 37 1011.8
20260905232025 84 108 2.0 3.0 0.00 0.00 0.00 38 1011.9
20260905231125 84 105 2.0 3.0 0.00 0.00 0.00 37 1012.0
20260905230225 84 216 2.0 5.0 0.00 0.00 0.00 37 1012.1
20260905225325 84 123 2.0 5.0 0.00 0.00 0.00 37 1012.2
20260905224425 84 117 1.0 5.0 0.00 0.00 0.00 37 1012.2
20260905223525 84 134 1.0 4.0 0.00 0.00 0.00 37 1012.3
20260905222625 83 117 2.0 4.0 0.00 0.00 0.00 36 1012.4
20260905221725 83 307 2.0 3.0 0.00 0.00 0.00 36 1012.4